Duncan, OK

9:09 PM CST on December 11, 2017 (GMT -0600)
Halliburton

Weather History for KDUC - May, 2013

Change the Weather History Date:

Wednesday, May 22, 2013

  Actual Average (KLAW) Record (KLAW)
Temperature  
Mean Temperature 68 °F -  
Max Temperature 82 °F 81 °F 102 °F (2000)
Min Temperature 53 °F 60 °F 45 °F (2001)
Cooling Degree Days 2    
Growing Degree Days 18 (Base 50)    
Moisture  
Dew Point 57 °F    
Average Humidity 72    
Maximum Humidity 100    
Minimum Humidity 37    
Precipitation  
Precipitation 0.00 in - - ()
Sea Level Pressure  
Sea Level Pressure 29.89 in    
Wind  
Wind Speed 3 mph (South)    
Max Wind Speed 10 mph    
Max Gust Speed 17 mph    
Visibility 10 miles    
Events      
Averages and records for this station are not official NWS values.
T = Trace of Precipitation, MM = Missing Value Source: NWS Daily Summary

Daily Weather History Graph

Daily Weather History Graph

Search for Another Location

Airport or City:

Trip Planner

Search our weather history database for the weather conditions in past years. The results will help you decide how hot, cold, wet, or windy it might be!

Date:

Astronomy

May. 22, 2013 Rise Set
Actual Time 6:24 AM CDT 8:32 PM CDT
Civil Twilight 5:56 AM CDT 9:01 PM CDT
Nautical Twilight 5:21 AM CDT 9:35 PM CDT
Astronomical Twilight 4:44 AM CDT 10:13 PM CDT
Moon 6:02 PM CDT (5/22) 4:22 AM CDT (5/22)
Length of Visible Light 15h 04m
Length of Day
14h 08m
Waxing Gibbous, 91% of the Moon is Illuminated
May 22
Waxing Gibbous
May 24
Full
May 31
Last Quarter
Jun 8
New
Jun 16
First Quarter

Hourly Weather History & Observations

Time (CDT) Temp. Heat Index Dew Point Humidity Pressure Visibility Wind Dir Wind Speed Gust Speed Precip Events Conditions
12:15 AM 59.0 °F - 57.2 °F 94% 29.86 in 10.0 mi Calm Calm - N/A   Clear
12:35 AM 57.2 °F - 57.2 °F 100% 29.86 in 10.0 mi Calm Calm - N/A   Clear
12:55 AM 55.4 °F - 55.4 °F 100% 29.86 in 10.0 mi SSW 3.5 mph - N/A   Clear
1:15 AM 55.4 °F - 55.4 °F 100% 29.85 in 10.0 mi SE 3.5 mph - N/A   Clear
1:35 AM 55.4 °F - 55.4 °F 100% 29.86 in 10.0 mi Calm Calm - N/A   Clear
1:55 AM 55.4 °F - 55.4 °F 100% 29.86 in 10.0 mi Calm Calm - N/A   Clear
2:15 AM 55.4 °F - 55.4 °F 100% 29.85 in 10.0 mi Calm Calm - N/A   Clear
2:35 AM 55.4 °F - 55.4 °F 100% 29.85 in 10.0 mi Calm Calm - N/A   Clear
2:55 AM 55.4 °F - 55.4 °F 100% 29.86 in 10.0 mi Calm Calm - N/A   Clear
3:15 AM 53.6 °F - 53.6 °F 100% 29.86 in 10.0 mi Calm Calm - N/A   Clear
3:35 AM 53.6 °F - 53.6 °F 100% 29.85 in 10.0 mi SE 3.5 mph - N/A   Clear
3:55 AM 53.6 °F - 53.6 °F 100% 29.87 in 10.0 mi Calm Calm - N/A   Clear
4:15 AM 53.6 °F - 53.6 °F 100% 29.86 in 10.0 mi Calm Calm - N/A   Clear
4:35 AM 53.6 °F - 53.6 °F 100% 29.86 in 10.0 mi Calm Calm - N/A   Clear
4:55 AM 53.6 °F - 53.6 °F 100% 29.86 in 10.0 mi Calm Calm - N/A   Clear
5:15 AM 53.6 °F - 53.6 °F 100% 29.87 in 10.0 mi Calm Calm - N/A   Clear
5:35 AM 53.6 °F - 53.6 °F 100% 29.87 in 7.0 mi Calm Calm - N/A   Clear
5:55 AM 53.6 °F - 53.6 °F 100% 29.87 in 10.0 mi Calm Calm - N/A   Clear
6:15 AM 53.6 °F - 53.6 °F 100% 29.88 in 10.0 mi Calm Calm - N/A   Clear
6:35 AM 53.6 °F - 53.6 °F 100% 29.88 in 10.0 mi Calm Calm - N/A   Clear
6:55 AM 55.4 °F - 55.4 °F 100% 29.89 in 10.0 mi Calm Calm - N/A   Clear
7:15 AM 55.4 °F - 55.4 °F 100% 29.89 in 10.0 mi Calm Calm - N/A   Clear
7:35 AM 57.2 °F - 57.2 °F 100% 29.89 in 10.0 mi Calm Calm - N/A   Clear
7:55 AM 57.2 °F - 57.2 °F 100% 29.90 in 10.0 mi WNW 3.5 mph - N/A   Clear
8:15 AM 59.0 °F - 59.0 °F 100% 29.91 in 10.0 mi WNW 3.5 mph - N/A   Clear
8:35 AM 60.8 °F - 60.8 °F 100% 29.92 in 10.0 mi WNW 4.6 mph - N/A   Clear
8:55 AM 62.6 °F - 60.8 °F 94% 29.93 in 10.0 mi NW 6.9 mph - N/A   Clear
9:15 AM 64.4 °F - 60.8 °F 88% 29.94 in 10.0 mi West 6.9 mph - N/A   Clear
9:35 AM 68.0 °F - 60.8 °F 78% 29.94 in 10.0 mi NNW 6.9 mph - N/A   Clear
9:55 AM 68.0 °F - 59.0 °F 73% 29.95 in 10.0 mi NW 6.9 mph - N/A   Clear
10:15 AM 69.8 °F - 60.8 °F 73% 29.95 in 10.0 mi North 5.8 mph - N/A   Clear
10:35 AM 69.8 °F - 59.0 °F 68% 29.95 in 10.0 mi NW 5.8 mph - N/A   Clear
10:55 AM 71.6 °F - 60.8 °F 69% 29.95 in 10.0 mi NW 4.6 mph - N/A   Clear
11:15 AM 71.6 °F - 59.0 °F 64% 29.95 in 10.0 mi NW 4.6 mph - N/A   Clear
11:35 AM 73.4 °F - 59.0 °F 61% 29.95 in 10.0 mi NW 4.6 mph - N/A   Clear
11:55 AM 73.4 °F - 60.8 °F 65% 29.95 in 10.0 mi Calm Calm - N/A   Clear
12:15 PM 75.2 °F - 59.0 °F 57% 29.95 in 10.0 mi Calm Calm - N/A   Clear
12:35 PM 77.0 °F - 59.0 °F 54% 29.95 in 10.0 mi WNW 3.5 mph - N/A   Clear
12:55 PM 77.0 °F - 59.0 °F 54% 29.95 in 10.0 mi Calm Calm - N/A   Clear
1:15 PM 77.0 °F - 59.0 °F 54% 29.94 in 10.0 mi Calm Calm - N/A   Clear
1:35 PM 78.8 °F - 60.8 °F 54% 29.94 in 10.0 mi South 4.6 mph - N/A   Clear
1:55 PM 78.8 °F - 59.0 °F 51% 29.93 in 10.0 mi WSW 4.6 mph - N/A   Clear
2:15 PM 78.8 °F - 55.4 °F 44% 29.93 in 10.0 mi Calm Calm - N/A   Clear
2:35 PM 80.6 °F 80.5 °F 55.4 °F 42% 29.92 in 10.0 mi WSW 3.5 mph - N/A   Clear
2:55 PM 80.6 °F 80.5 °F 55.4 °F 42% 29.91 in 10.0 mi Calm Calm - N/A   Clear
3:15 PM 80.6 °F 80.5 °F 55.4 °F 42% 29.91 in 10.0 mi SSW 5.8 mph - N/A   Clear
3:35 PM 82.4 °F 81.7 °F 55.4 °F 39% 29.90 in 10.0 mi South 6.9 mph - N/A   Clear
3:55 PM 82.4 °F 81.4 °F 53.6 °F 37% 29.89 in 10.0 mi SSW 4.6 mph - N/A   Clear
4:15 PM 82.4 °F 81.4 °F 53.6 °F 37% 29.88 in 10.0 mi SW 9.2 mph - N/A   Clear
4:35 PM 82.4 °F 82.0 °F 57.2 °F 42% 29.88 in 10.0 mi South 9.2 mph - N/A   Clear
4:55 PM 82.4 °F 81.7 °F 55.4 °F 39% 29.87 in 10.0 mi South 10.4 mph - N/A   Clear
5:15 PM 82.4 °F 82.0 °F 57.2 °F 42% 29.87 in 10.0 mi South 9.2 mph 17.3 mph N/A   Clear
5:35 PM 82.4 °F 81.7 °F 55.4 °F 39% 29.87 in 10.0 mi South 10.4 mph - N/A   Clear
5:55 PM 82.4 °F 82.0 °F 57.2 °F 42% 29.87 in 10.0 mi South 6.9 mph - N/A   Clear
6:15 PM 82.4 °F 81.7 °F 55.4 °F 39% 29.86 in 10.0 mi South 10.4 mph - N/A   Clear
6:35 PM 82.4 °F 81.7 °F 55.4 °F 39% 29.86 in 10.0 mi SSE 8.1 mph - N/A   Clear
6:55 PM 80.6 °F 80.5 °F 55.4 °F 42% 29.86 in 10.0 mi SSE 6.9 mph - N/A   Clear
7:15 PM 80.6 °F 80.3 °F 53.6 °F 39% 29.86 in 10.0 mi SSE 9.2 mph - N/A   Clear
7:35 PM 78.8 °F - 53.6 °F 42% 29.86 in 10.0 mi SSE 6.9 mph - N/A   Clear
7:55 PM 78.8 °F - 55.4 °F 44% 29.87 in 10.0 mi SE 8.1 mph - N/A   Clear
8:15 PM 75.2 °F - 55.4 °F 50% 29.87 in 10.0 mi SE 6.9 mph - N/A   Clear
8:35 PM 73.4 °F - 55.4 °F 53% 29.87 in 10.0 mi ESE 6.9 mph - N/A   Clear
8:55 PM 71.6 °F - 57.2 °F 60% 29.87 in 10.0 mi ESE 6.9 mph - N/A   Clear
9:15 PM 69.8 °F - 59.0 °F 68% 29.87 in 10.0 mi East 6.9 mph - N/A   Clear
9:35 PM 69.8 °F - 59.0 °F 68% 29.87 in 10.0 mi ESE 6.9 mph - N/A   Clear
9:55 PM 68.0 °F - 60.8 °F 78% 29.87 in 10.0 mi ESE 6.9 mph - N/A   Clear
10:15 PM 68.0 °F - 59.0 °F 73% 29.88 in 10.0 mi SE 8.1 mph - N/A   Clear
10:35 PM 68.0 °F - 59.0 °F 73% 29.89 in 10.0 mi ESE 8.1 mph - N/A   Clear
10:55 PM 68.0 °F - 59.0 °F 73% 29.89 in 10.0 mi SE 8.1 mph - N/A   Clear
11:15 PM 69.8 °F - 59.0 °F 68% 29.89 in 10.0 mi SE 9.2 mph - N/A   Clear
11:35 PM 68.0 °F - 59.0 °F 73% 29.90 in 10.0 mi ESE 9.2 mph - N/A   Clear
11:55 PM 68.0 °F - 59.0 °F 73% 29.90 in 10.0 mi ESE 8.1 mph - N/A   Clear